WESTFORD NEEDLES, 2361

Orbit data source: Space-Track

WESTFORD NEEDLES, 2361 is space debris in LEO originally from a launch on Thu, 09 May 1963 UTC launched from the Air Force Western Test Range (AFWTR). Debris objects in space refer to the collection of defunct objects orbiting the Earth. Examples of debris include non-operational satellites, rocket bodies, and fragments generated from explosions, collisions, or faulty payload assembly.

Loading next visibility...
Identifier
2361, 1963-014L
Orbit
LEO
Country
Flag of USUS
Related business
Manufacturer
Unknown
Mission
Spacecraft
Bus & Motor
Unknown
Mass
Unknown
Launch date (UTC)
1963-05-09 (63 years ago)
Launch vehicle
Unknown
Launch site
Air Force Western Test Range (AFWTR)
Object type
Payload
Rocket body
Debris
Shape & HBR
Unknown shape, 0.5 m
Radar Cross Section
Medium (>0.1 m² and <1 m²)

Expand to show TLE details & history
Last TLE update: 3 weeks ago

TLE from 3 weeks ago
0 WESTFORD NEEDLES
1 02361U 63014L   26151.03552179  .00000032  00000-0  13550-1 0  9993
2 02361  87.3815 182.3949 0144005 283.1871  75.2953  8.66273340993524
Epoch: 2026-05-31T00:51Z
TLE epoch observation values (Epoch: 2026-05-31T00:51:09.082Z)
Latitude
-0.00005°
Longitude
-78.93592°
Altitude
3,603.955 km
Speed
6.331 km/s
True Right ascension
12h 09m 34s
True Declination
0° 00' 00"
Sunlit
Object was in daylight at epoch
Visualization orbit readout
Latitude
Unknown
Longitude
Unknown
Altitude
Unknown
Speed
Unknown
Apparent Right ascension
Unknown
Apparent Declination
Unknown
Sunlit
N/A
Visualization observer readout
Local Sidereal Time
05:34:38
Azimuth
Unknown
Elevation
Unknown
Doppler factor
Unknown
Orbital elements
Apogee altitude
3,778.427 km
Perigee altitude
3,490.06 km
Semi-major axis
10,012.381 km
Eccentricity
0.0144
Inclination
87.3815°
RAAN
182.3949°
Arg. of periapsis
283.1871°
True anomaly
76.89854°
Mean anomaly
75.2953°
Eccentric anomaly
76.09621°
Mean motion
2.16639 °/min
Orbital period
166.17 mins
BSTAR
0.01355
Loading maneuver chart data...
Computing Atmospheric mass density...

Documentation

Showing up to 5 results
|